Time,TemperatureF,DewpointF,PressureIn,WindDirection,WindDirectionDegrees,WindSpeedMPH,WindSpeedGustMPH,Humidity,HourlyPrecipIn,Conditions,Clouds,dailyrainin,SolarRadiationWatts/m^2,SoftwareType,DateUTC
2013-02-03 00:22:00,45.0,38.0,-100.00,NNW,348,6.0,9.0,75,0.00,,,0.05,1.000000,,2013-02-03 08:22:00,
2013-02-03 00:32:00,45.0,38.0,-100.00,NNW,348,6.0,9.0,75,0.00,,,0.05,1.000000,,2013-02-03 08:32:00,
2013-02-03 00:41:00,45.0,38.0,-100.00,NNW,348,6.0,9.0,75,0.00,,,0.05,1.000000,,2013-02-03 08:41:00,
2013-02-03 00:51:00,45.0,38.0,-100.00,NNW,348,6.0,9.0,75,0.00,,,0.05,1.000000,,2013-02-03 08:51:00,
2013-02-03 01:21:00,46.0,36.0,-100.00,NNW,347,8.0,11.0,69,0.00,,,0.05,1.000000,,2013-02-03 09:21:00,
2013-02-03 01:31:00,46.0,36.0,-100.00,NNW,347,8.0,11.0,69,0.00,,,0.05,1.000000,,2013-02-03 09:31:00,
2013-02-03 01:41:00,46.0,36.0,-100.00,NNW,347,8.0,11.0,69,0.00,,,0.05,1.000000,,2013-02-03 09:41:00,
2013-02-03 01:51:00,46.0,36.0,-100.00,NNW,347,8.0,11.0,69,0.00,,,0.05,1.000000,,2013-02-03 09:51:00,
2013-02-03 02:21:00,46.0,36.0,-100.00,NNW,348,8.0,11.0,68,0.00,,,0.05,1.000000,,2013-02-03 10:21:00,
2013-02-03 02:31:00,46.0,36.0,-100.00,NNW,348,8.0,11.0,68,0.00,,,0.05,1.000000,,2013-02-03 10:31:00,
2013-02-03 02:41:00,46.0,36.0,-100.00,NNW,348,8.0,11.0,68,0.00,,,0.05,1.000000,,2013-02-03 10:41:00,
2013-02-03 02:52:00,46.0,36.0,-100.00,NNW,348,8.0,11.0,68,0.00,,,0.05,1.000000,,2013-02-03 10:52:00,
2013-02-03 03:22:00,45.0,36.0,-100.00,North,357,8.0,15.0,70,0.00,,,0.05,1.000000,,2013-02-03 11:22:00,
2013-02-03 03:31:00,45.0,36.0,-100.00,North,357,8.0,15.0,70,0.00,,,0.05,1.000000,,2013-02-03 11:31:00,
2013-02-03 03:41:00,45.0,36.0,-100.00,North,357,8.0,15.0,70,0.00,,,0.05,1.000000,,2013-02-03 11:41:00,
2013-02-03 03:52:00,45.0,36.0,-100.00,North,357,8.0,15.0,70,0.00,,,0.05,1.000000,,2013-02-03 11:52:00,
2013-02-03 04:22:00,44.0,35.0,-100.00,North,3,7.0,13.0,71,0.00,,,0.05,1.000000,,2013-02-03 12:22:00,
2013-02-03 04:32:00,44.0,35.0,-100.00,North,3,7.0,13.0,71,0.00,,,0.05,1.000000,,2013-02-03 12:32:00,
2013-02-03 04:42:00,44.0,35.0,-100.00,North,3,7.0,13.0,71,0.00,,,0.05,1.000000,,2013-02-03 12:42:00,
2013-02-03 04:52:00,44.0,35.0,-100.00,North,3,7.0,13.0,71,0.00,,,0.05,1.000000,,2013-02-03 12:52:00,
2013-02-03 05:21:00,44.0,35.0,-100.00,North,356,6.0,11.0,71,0.00,,,0.05,1.000000,,2013-02-03 13:21:00,
2013-02-03 05:32:00,44.0,35.0,-100.00,North,356,6.0,11.0,71,0.00,,,0.05,1.000000,,2013-02-03 13:32:00,
2013-02-03 05:41:00,44.0,35.0,-100.00,North,356,6.0,11.0,71,0.00,,,0.05,1.000000,,2013-02-03 13:41:00,
2013-02-03 05:52:00,44.0,35.0,-100.00,North,356,6.0,11.0,71,0.00,,,0.05,1.000000,,2013-02-03 13:52:00,
2013-02-03 06:21:00,43.0,36.0,-100.00,North,350,6.0,10.0,75,0.00,,,0.05,1.000000,,2013-02-03 14:21:00,
2013-02-03 06:32:00,43.0,36.0,-100.00,North,350,6.0,10.0,75,0.00,,,0.05,1.000000,,2013-02-03 14:32:00,
2013-02-03 06:42:00,43.0,36.0,-100.00,North,350,6.0,10.0,75,0.00,,,0.05,1.000000,,2013-02-03 14:42:00,
2013-02-03 06:52:00,43.0,36.0,-100.00,North,350,6.0,10.0,75,0.00,,,0.05,1.000000,,2013-02-03 14:52:00,
2013-02-03 07:22:00,43.0,36.0,-100.00,North,4,5.0,9.0,75,0.00,,,0.05,2.000000,,2013-02-03 15:22:00,
2013-02-03 07:32:00,43.0,36.0,-100.00,North,4,5.0,9.0,75,0.00,,,0.05,2.000000,,2013-02-03 15:32:00,
2013-02-03 07:41:00,43.0,36.0,-100.00,North,4,5.0,9.0,75,0.00,,,0.05,2.000000,,2013-02-03 15:41:00,
2013-02-03 07:51:00,43.0,36.0,-100.00,North,4,5.0,9.0,75,0.00,,,0.05,2.000000,,2013-02-03 15:51:00,
2013-02-03 08:21:00,45.0,36.0,-100.00,North,359,5.0,10.0,70,0.00,,,0.05,54.000000,,2013-02-03 16:21:00,
2013-02-03 08:32:00,45.0,36.0,-100.00,North,359,5.0,10.0,70,0.00,,,0.05,54.000000,,2013-02-03 16:32:00,
2013-02-03 08:41:00,45.0,36.0,-100.00,North,359,5.0,10.0,70,0.00,,,0.05,54.000000,,2013-02-03 16:41:00,
2013-02-03 08:52:00,45.0,36.0,-100.00,North,359,5.0,10.0,70,0.00,,,0.05,54.000000,,2013-02-03 16:52:00,
2013-02-03 09:31:00,47.0,37.0,-100.00,North,355,6.0,11.0,67,0.00,,,0.05,28.000000,,2013-02-03 17:31:00,
2013-02-03 09:42:00,47.0,37.0,-100.00,North,355,6.0,11.0,67,0.00,,,0.05,28.000000,,2013-02-03 17:42:00,
2013-02-03 09:52:00,47.0,37.0,-100.00,North,355,6.0,11.0,67,0.00,,,0.05,28.000000,,2013-02-03 17:52:00,
2013-02-03 10:23:00,49.0,37.0,-100.00,North,349,7.0,11.0,62,0.00,,,0.05,356.000000,,2013-02-03 18:23:00,
2013-02-03 10:32:00,49.0,37.0,-100.00,North,349,7.0,11.0,62,0.00,,,0.05,356.000000,,2013-02-03 18:32:00,
2013-02-03 10:41:00,49.0,37.0,-100.00,North,349,7.0,11.0,62,0.00,,,0.05,356.000000,,2013-02-03 18:41:00,
2013-02-03 10:51:00,49.0,37.0,-100.00,North,349,7.0,11.0,62,0.00,,,0.05,356.000000,,2013-02-03 18:51:00,
2013-02-03 11:32:00,52.0,38.0,-100.00,North,350,6.0,10.0,58,0.00,,,-99.99,708.000000,,2013-02-03 19:32:00,
2013-02-03 11:41:00,52.0,38.0,-100.00,North,350,6.0,10.0,58,0.00,,,-99.99,708.000000,,2013-02-03 19:41:00,
2013-02-03 11:51:00,52.0,38.0,-100.00,North,350,6.0,10.0,58,0.00,,,-99.99,708.000000,,2013-02-03 19:51:00,
2013-02-03 12:21:00,55.0,38.0,-100.00,North,352,4.0,10.0,52,0.00,,,0.05,791.000000,,2013-02-03 20:21:00,
2013-02-03 12:32:00,55.0,38.0,-100.00,North,352,4.0,10.0,52,0.00,,,0.05,791.000000,,2013-02-03 20:32:00,
2013-02-03 12:42:00,55.0,38.0,-100.00,North,352,4.0,10.0,52,0.00,,,0.05,791.000000,,2013-02-03 20:42:00,
2013-02-03 12:52:00,55.0,38.0,-100.00,North,352,4.0,10.0,52,0.00,,,0.05,791.000000,,2013-02-03 20:52:00,
2013-02-03 13:32:00,56.0,37.0,-100.00,NNW,336,4.0,9.0,48,0.00,,,0.05,704.000000,,2013-02-03 21:32:00,
2013-02-03 13:42:00,56.0,37.0,-100.00,NNW,336,4.0,9.0,48,0.00,,,0.05,704.000000,,2013-02-03 21:42:00,
2013-02-03 13:51:00,56.0,37.0,-100.00,NNW,336,4.0,9.0,48,0.00,,,0.05,704.000000,,2013-02-03 21:51:00,
2013-02-03 14:21:00,58.0,34.0,-100.00,NNW,347,3.0,9.0,41,0.00,,,0.05,678.000000,,2013-02-03 22:21:00,
2013-02-03 14:32:00,58.0,34.0,-100.00,NNW,347,3.0,9.0,41,0.00,,,0.05,678.000000,,2013-02-03 22:32:00,
2013-02-03 14:41:00,58.0,34.0,-100.00,NNW,347,3.0,9.0,41,0.00,,,0.05,678.000000,,2013-02-03 22:41:00,
2013-02-03 14:51:00,58.0,34.0,-100.00,NNW,347,3.0,9.0,41,0.00,,,0.05,678.000000,,2013-02-03 22:51:00,
2013-02-03 15:32:00,59.0,28.0,-100.00,NNE,29,3.0,6.0,31,0.00,,,0.05,516.000000,,2013-02-03 23:32:00,
2013-02-03 15:41:00,59.0,28.0,-100.00,NNE,29,3.0,6.0,31,0.00,,,0.05,516.000000,,2013-02-03 23:41:00,
2013-02-03 15:52:00,59.0,28.0,-100.00,NNE,29,3.0,6.0,31,0.00,,,0.05,516.000000,,2013-02-03 23:52:00,
2013-02-03 16:31:00,57.0,25.0,-100.00,North,355,3.0,8.0,29,0.00,,,0.05,373.000000,,2013-02-04 00:31:00,
2013-02-03 16:41:00,57.0,25.0,-100.00,North,355,3.0,8.0,29,0.00,,,0.05,373.000000,,2013-02-04 00:41:00,
2013-02-03 16:51:00,57.0,25.0,-100.00,North,355,3.0,8.0,29,0.00,,,0.05,373.000000,,2013-02-04 00:51:00,
2013-02-03 17:21:00,53.0,21.0,-100.00,NNE,15,4.0,8.0,28,0.00,,,0.05,207.000000,,2013-02-04 01:21:00,
2013-02-03 17:31:00,53.0,21.0,-100.00,NNE,15,4.0,8.0,28,0.00,,,0.05,207.000000,,2013-02-04 01:31:00,
2013-02-03 17:41:00,53.0,21.0,-100.00,NNE,15,4.0,8.0,28,0.00,,,0.05,207.000000,,2013-02-04 01:41:00,
2013-02-03 17:52:00,53.0,21.0,-100.00,NNE,15,4.0,8.0,28,0.00,,,0.05,207.000000,,2013-02-04 01:52:00,
2013-02-03 18:21:00,48.0,22.0,-100.00,NNE,24,5.0,9.0,36,0.00,,,0.05,17.000000,,2013-02-04 02:21:00,
2013-02-03 18:31:00,48.0,22.0,-100.00,NNE,24,5.0,9.0,36,0.00,,,0.05,17.000000,,2013-02-04 02:31:00,
2013-02-03 18:41:00,48.0,22.0,-100.00,NNE,24,5.0,9.0,36,0.00,,,0.05,17.000000,,2013-02-04 02:41:00,
2013-02-03 18:52:00,48.0,22.0,-100.00,NNE,24,5.0,9.0,36,0.00,,,0.05,17.000000,,2013-02-04 02:52:00,
2013-02-03 19:32:00,48.0,20.0,-100.00,NNE,14,5.0,10.0,33,0.00,,,0.05,1.000000,,2013-02-04 03:32:00,
2013-02-03 19:41:00,48.0,20.0,-100.00,NNE,14,5.0,10.0,33,0.00,,,0.05,1.000000,,2013-02-04 03:41:00,
2013-02-03 19:51:00,48.0,20.0,-100.00,NNE,14,5.0,10.0,33,0.00,,,0.05,1.000000,,2013-02-04 03:51:00,
2013-02-03 20:21:00,48.0,19.0,-100.00,North,11,7.0,11.0,31,0.00,,,0.03,1.000000,,2013-02-04 04:21:00,
2013-02-03 20:31:00,48.0,19.0,-100.00,North,11,7.0,11.0,31,0.00,,,0.03,1.000000,,2013-02-04 04:31:00,
2013-02-03 20:41:00,48.0,19.0,-100.00,North,11,7.0,11.0,31,0.00,,,0.03,1.000000,,2013-02-04 04:41:00,
2013-02-03 20:52:00,48.0,19.0,-100.00,North,11,7.0,11.0,31,0.00,,,0.03,1.000000,,2013-02-04 04:52:00,
2013-02-03 21:22:00,48.0,19.0,-100.00,NNE,17,3.0,12.0,31,0.00,,,0.02,1.000000,,2013-02-04 05:22:00,
2013-02-03 21:33:00,48.0,19.0,-100.00,NNE,17,3.0,12.0,31,0.00,,,0.02,1.000000,,2013-02-04 05:33:00,
2013-02-03 21:42:00,48.0,19.0,-100.00,NNE,17,3.0,12.0,31,0.00,,,0.02,1.000000,,2013-02-04 05:42:00,
2013-02-03 21:52:00,48.0,19.0,-100.00,NNE,17,3.0,12.0,31,0.00,,,0.02,1.000000,,2013-02-04 05:52:00,
2013-02-03 22:21:00,48.0,21.0,-100.00,NNE,16,3.0,9.0,34,0.00,,,0.00,1.000000,,2013-02-04 06:21:00,
2013-02-03 22:31:00,48.0,21.0,-100.00,NNE,16,3.0,9.0,34,0.00,,,0.00,1.000000,,2013-02-04 06:31:00,
2013-02-03 22:41:00,48.0,21.0,-100.00,NNE,16,3.0,9.0,34,0.00,,,0.00,1.000000,,2013-02-04 06:41:00,
2013-02-03 22:51:00,48.0,21.0,-100.00,NNE,16,3.0,9.0,34,0.00,,,0.00,1.000000,,2013-02-04 06:51:00,
2013-02-03 23:31:00,50.0,21.0,-100.00,NNW,348,7.0,8.0,32,0.00,,,0.00,1.000000,,2013-02-04 07:31:00,
2013-02-03 23:41:00,50.0,21.0,-100.00,NNW,348,7.0,8.0,32,0.00,,,0.00,1.000000,,2013-02-04 07:41:00,
2013-02-03 23:51:00,50.0,21.0,-100.00,NNW,348,7.0,8.0,32,0.00,,,0.00,1.000000,,2013-02-04 07:51:00,